Theta_e
350 351 351 352 354 354 354 353 352 353 354 354 352 351 353 354 354 355 355 356 355 351 349 351 354 353 352 353 354 356 356 355 355 354 352 351 349 348 349 349 348 348
350 352 352 353 354 355 355 354 353 353 353 353 353 352 352 353 354 355 355 356 356 353 350 352 356 356 355 354 354 355 356 356 355 354 353 352 350 348 348 347 348 348
351 353 354 355 355 355 355 355 353 352 352 352 353 352 353 353 354 355 355 355 356 354 352 354 356 357 357 356 354 355 356 356 356 355 355 354 352 349 348 347 346 346
351 353 354 355 354 353 354 355 352 350 351 352 352 353 353 354 354 355 355 355 354 354 353 355 357 357 357 357 356 355 357 357 357 356 355 354 353 351 350 350 348 345
351 352 354 354 353 353 354 354 353 351 352 352 352 353 353 354 354 354 355 354 353 353 353 354 356 357 357 357 356 357 357 358 358 358 356 354 354 353 352 353 352 348
350 351 352 353 353 353 354 354 354 353 353 352 353 354 355 354 354 354 354 354 354 354 353 353 355 356 356 357 357 357 358 358 358 359 358 356 355 355 353 354 354 352
349 349 351 353 352 353 355 355 354 354 354 354 355 355 356 356 356 355 354 355 355 354 354 354 353 355 356 357 357 357 357 357 358 359 358 357 356 356 354 354 355 354
350 348 349 351 352 352 354 355 355 355 355 355 356 356 356 357 357 356 356 355 355 355 355 354 354 354 355 356 357 356 355 355 355 356 357 357 356 356 354 354 355 355
352 351 351 351 351 351 353 354 355 355 355 355 356 356 356 356 357 357 357 356 356 356 355 354 354 354 355 356 356 356 355 353 352 353 355 355 356 356 354 354 355 355
354 354 354 353 353 351 351 353 354 355 355 355 356 356 356 356 356 356 357 356 356 356 355 355 355 355 355 356 356 357 356 355 353 352 353 353 355 357 356 356 356 356
355 355 355 355 354 352 351 352 353 354 354 355 354 355 355 355 355 355 354 355 356 355 355 354 355 355 355 356 356 356 356 356 355 353 353 352 353 354 356 358 358 357
357 356 356 355 354 354 353 352 353 354 354 354 353 354 354 354 354 353 352 353 355 355 354 354 354 355 355 355 356 356 355 356 356 355 354 353 352 353 354 356 357 357
358 358 357 356 356 356 355 354 354 354 355 354 353 353 354 354 353 353 352 352 353 353 353 354 354 354 355 354 355 355 355 355 356 356 356 355 354 354 354 355 355 355
356 357 356 356 356 356 356 356 355 355 355 354 355 354 354 354 353 353 352 352 351 352 352 353 353 354 354 354 354 354 354 354 355 356 356 355 355 355 354 355 354 355
352 353 353 353 354 354 354 355 354 354 354 353 353 353 352 352 352 352 353 351 351 351 351 352 352 353 353 353 353 354 353 354 354 354 355 355 354 354 354 354 355 355
350 350 351 351 353 353 353 353 353 353 353 352 351 349 349 349 350 350 351 351 351 351 351 352 352 352 351 352 352 352 353 353 353 353 354 353 354 353 353 354 354 355
350 350 351 351 352 352 353 353 353 353 352 352 351 350 348 348 348 349 350 350 350 350 350 350 351 351 350 350 351 351 352 353 353 353 353 353 353 353 353 353 354 355
350 350 350 350 350 351 352 352 351 350 350 350 350 349 348 347 347 348 348 349 349 349 348 348 349 349 350 350 350 351 351 352 352 352 353 353 353 353 352 353 353 354
350 350 350 351 351 351 350 350 348 349 349 348 349 349 348 348 348 348 348 348 347 347 347 347 348 349 349 350 351 351 351 352 353 353 353 353 352 352 352 352 352 353
344 346 346 348 349 349 350 349 349 350 349 349 350 350 349 350 350 350 351 350 349 347 347 347 348 349 350 350 350 350 351 352 353 353 353 353 352 352 352 351 351 351
339 340 341 342 344 347 348 347 346 347 348 349 349 349 350 350 350 351 352 352 352 351 349 348 348 349 350 351 351 351 351 351 351 351 352 352 352 352 352 352 351 351
339 339 338 339 340 343 343 342 341 340 341 342 343 343 345 347 347 347 347 347 349 351 352 352 352 351 351 351 352 353 352 352 351 351 351 351 352 352 352 352 352 353
338 339 338 339 339 340 340 340 340 339 338 338 338 338 340 342 343 343 344 344 345 348 350 351 352 353 353 353 354 354 354 353 352 352 352 351 351 351 352 352 353 353
335 338 340 341 342 342 342 341 342 342 342 342 342 342 342 342 342 342 342 342 343 345 349 350 351 352 353 354 355 355 355 355 355 353 353 352 352 351 351 351 351 351
331 335 337 338 339 339 339 338 339 341 343 344 346 345 343 340 339 338 336 335 336 338 342 345 345 344 345 348 351 353 354 356 356 355 354 353 352 352 352 351 351 351
331 331 332 332 333 334 335 337 339 341 343 343 342 342 340 338 337 335 332 331 332 333 334 336 336 336 337 342 346 349 351 352 353 354 354 354 353 353 353 353 352 352
Wind_Speed
21 20 20 19 18 18 17 18 19 18 17 17 16 15 15 14 13 13 13 12 11 11 13 13 11 10 10 11 11 10 10 11 12 12 11 10 10 11 11 9 7 6
21 20 20 20 19 19 19 19 19 19 19 18 17 15 15 15 14 14 14 13 12 12 13 14 12 11 11 12 13 12 11 12 12 11 10 10 10 11 12 12 10 9
22 21 21 21 20 20 20 20 19 20 19 19 18 16 15 15 15 15 14 14 14 13 14 14 14 12 12 13 14 14 13 13 13 11 11 11 10 10 11 11 12 12
25 23 22 21 20 19 20 20 20 20 20 20 19 17 17 16 16 16 15 15 15 14 15 15 15 13 12 13 13 14 14 14 14 13 12 12 11 10 10 9 11 12
27 26 24 22 19 19 20 20 20 21 21 21 19 18 18 17 17 16 16 16 15 15 16 16 16 15 13 13 14 14 14 15 14 13 13 14 13 12 11 10 11 11
27 27 26 24 20 18 19 21 21 21 21 21 20 19 18 18 18 17 17 17 16 15 16 17 17 17 15 14 14 15 15 15 15 14 14 15 15 15 14 13 12 12
27 27 27 26 22 19 19 20 20 21 22 22 21 20 19 19 19 19 18 18 17 17 17 17 18 18 17 16 15 16 16 16 15 15 16 17 17 17 16 15 14 13
26 26 27 26 24 21 20 20 20 20 21 21 22 21 20 20 19 19 19 19 19 19 18 18 18 18 18 17 16 16 16 16 17 16 16 17 17 17 17 17 16 15
25 25 25 26 25 24 22 21 21 20 20 21 22 21 21 21 20 20 20 20 21 21 20 20 19 19 18 18 18 17 16 17 17 17 17 17 17 17 17 17 17 17
25 25 25 26 26 25 25 23 22 21 21 21 21 21 22 22 22 21 21 22 22 22 22 21 21 21 20 19 19 18 18 18 17 18 18 18 18 17 17 17 17 18
25 26 26 27 27 27 26 25 24 23 23 23 22 22 23 23 24 23 23 23 23 23 23 23 23 23 22 21 21 20 20 19 19 19 19 19 19 19 18 17 18 19
26 26 27 28 29 28 27 26 25 25 25 24 24 24 24 24 25 26 26 26 26 25 25 25 24 24 24 24 23 22 22 22 21 20 20 20 20 20 19 19 19 19
26 27 28 28 28 28 27 26 25 25 25 25 25 25 25 25 26 27 27 27 27 27 27 26 25 25 25 24 24 24 24 24 24 23 22 22 21 21 21 21 20 19
24 25 26 25 25 25 25 25 24 24 24 24 25 25 25 26 26 28 28 28 28 28 28 28 27 27 26 26 25 24 25 25 25 25 25 24 23 22 22 21 21 21
19 20 20 19 17 16 16 17 19 21 21 21 21 22 24 25 27 28 29 29 29 29 29 29 29 29 28 27 26 25 25 26 26 26 26 25 25 24 23 23 22 22
13 14 14 14 13 12 11 12 15 19 21 21 19 18 18 20 24 27 29 30 30 29 29 30 31 31 31 30 29 27 27 27 27 27 27 26 26 26 25 25 24 23
8 9 9 9 9 12 16 17 17 17 19 21 22 19 17 15 18 23 27 29 30 29 29 30 31 32 32 31 31 30 29 29 29 29 28 28 27 27 27 26 26 25
6 6 5 5 5 9 12 14 13 11 13 18 22 21 19 15 13 17 21 24 25 25 25 26 28 30 31 31 32 32 31 31 31 31 30 29 29 29 28 28 27 27
9 9 9 8 6 4 5 7 9 9 10 15 18 19 18 16 14 14 16 19 20 19 19 19 20 22 25 27 29 31 31 31 32 32 31 31 30 30 29 29 28 28
9 10 10 10 8 7 6 5 6 7 8 9 11 13 12 12 12 12 11 13 15 16 16 16 15 15 16 18 21 24 27 29 31 31 32 32 32 32 31 30 29 29
10 10 10 8 7 7 9 9 7 5 6 6 4 3 3 3 5 7 9 10 10 11 13 14 14 14 13 13 14 16 19 23 27 29 30 32 32 33 33 32 32 30
10 11 13 12 10 9 10 11 10 6 2 2 3 2 2 2 4 4 5 7 8 7 6 7 9 11 12 12 11 12 13 15 18 21 25 28 31 32 33 33 32 31
10 9 11 13 14 14 14 14 11 8 5 2 2 2 1 1 3 5 5 4 6 6 5 3 3 4 6 7 8 9 10 11 12 13 16 19 23 27 30 31 32 31
13 10 9 10 11 12 11 10 8 6 6 7 6 7 7 6 6 6 5 5 5 6 6 6 6 5 4 5 6 7 8 9 10 11 12 13 15 17 20 23 25 27
15 13 11 11 10 10 10 9 8 7 7 9 11 13 13 13 13 11 10 10 10 10 10 9 9 9 8 7 7 7 8 8 8 10 11 12 14 15 16 17 18 20
14 14 14 14 14 14 15 14 13 13 11 11 13 14 14 15 15 15 14 13 12 13 13 14 14 13 11 10 10 8 7 6 7 8 10 11 13 14 16 17 18 19
Wind_Direction
218 218 217 216 215 216 219 219 220 224 226 223 220 220 219 221 224 228 236 242 245 242 231 228 231 234 235 232 236 244 248 255 263 270 273 265 257 256 257 263 271 278
216 217 218 218 217 221 224 225 226 228 227 223 224 226 225 225 227 230 237 241 242 240 230 226 231 236 239 237 238 244 247 252 258 263 268 269 268 264 259 263 266 270
213 215 218 220 222 224 227 228 229 230 229 227 227 229 229 229 229 231 237 239 240 238 228 224 229 235 240 240 241 245 247 251 255 259 264 267 273 269 261 265 268 266
213 215 218 223 226 228 229 227 227 228 229 229 229 232 233 232 232 231 234 237 237 235 228 225 230 235 238 241 242 244 247 251 255 259 261 259 265 268 261 268 273 265
217 218 219 223 226 229 229 227 227 227 228 229 231 234 235 234 233 232 233 235 234 233 230 228 232 235 238 241 242 244 247 251 254 257 257 254 258 265 264 269 276 270
221 221 221 223 226 228 230 231 231 230 230 231 233 236 236 236 237 236 234 234 233 232 231 231 233 235 238 241 244 247 247 249 253 254 255 255 257 261 263 266 272 272
220 222 222 224 226 228 230 232 234 234 233 234 236 237 237 237 239 238 237 236 235 234 234 235 235 236 236 238 242 246 247 248 249 250 253 254 256 259 257 259 265 268
221 223 223 225 229 230 230 230 232 235 236 237 239 239 239 239 239 239 238 238 237 238 238 239 239 238 236 236 237 241 244 246 246 247 249 250 252 254 251 251 257 261
223 224 224 227 230 232 232 231 231 233 235 238 240 243 243 242 242 242 242 242 241 241 241 240 240 240 238 236 237 238 241 243 244 243 244 245 246 248 248 249 252 257
224 226 226 228 231 234 235 235 235 235 235 237 241 246 247 246 246 247 247 245 242 240 240 241 240 240 239 239 240 243 244 244 243 242 241 241 242 245 248 250 254 258
222 225 226 227 229 232 235 236 238 239 239 240 242 246 249 250 250 250 250 248 244 241 242 243 243 242 241 240 242 245 247 248 247 245 244 243 242 244 247 250 255 260
220 223 226 228 229 231 233 236 239 240 242 242 242 244 248 251 252 252 252 250 248 247 246 246 246 245 245 245 245 246 247 250 252 251 250 249 248 249 250 252 256 260
219 222 225 228 230 231 231 234 238 241 243 244 244 245 248 251 252 253 253 252 251 250 250 249 248 247 248 249 249 250 250 251 253 255 255 254 254 254 255 257 258 260
225 227 228 230 233 235 235 236 238 241 245 247 249 252 254 255 254 254 254 253 253 251 250 250 249 247 248 249 251 252 252 253 254 256 257 258 258 258 258 259 261 262
230 232 231 230 232 235 237 236 235 236 238 242 246 252 258 260 260 258 255 254 253 252 250 249 249 249 249 249 250 251 250 252 255 256 258 258 259 260 260 261 262 264
226 227 224 221 219 218 214 213 219 226 229 230 233 239 248 256 258 257 256 255 255 254 252 248 247 250 252 252 252 252 252 252 254 256 257 257 257 258 260 261 263 265
205 208 209 210 212 214 213 213 216 222 228 230 230 231 234 244 254 254 251 253 255 256 255 252 250 250 253 254 255 254 254 254 255 257 257 255 255 256 258 261 263 265
154 159 167 181 204 219 223 224 226 232 240 243 240 237 235 238 251 255 249 246 249 252 253 253 255 256 256 256 257 257 256 255 256 258 258 257 256 257 259 261 263 265
128 125 117 124 147 185 218 229 233 238 248 257 259 254 248 247 253 262 261 250 244 245 248 249 253 258 258 258 259 260 260 258 257 257 257 258 259 259 260 262 263 265
107 117 110 104 105 107 116 150 184 200 213 243 266 267 261 261 262 266 276 271 253 244 244 246 247 252 257 259 259 260 261 260 259 258 257 257 259 260 261 262 264 266
84 96 96 90 90 95 98 103 110 133 164 179 212 248 254 290 297 283 283 291 282 258 246 247 248 247 251 257 260 262 262 260 259 259 258 258 258 259 261 263 265 266
80 91 91 87 85 85 80 78 74 65 72 170 184 167 142 101 51 17 313 298 301 291 266 256 255 253 254 259 265 269 271 271 269 266 262 260 260 260 261 262 265 266
76 92 91 83 74 68 65 62 63 64 60 70 182 156 119 138 89 61 32 338 318 319 327 328 311 288 270 265 268 271 272 277 282 282 277 271 267 265 263 263 264 266
68 80 85 78 67 62 59 55 56 68 73 73 82 85 78 76 82 81 65 32 5 5 18 24 19 5 330 295 281 274 271 273 278 285 288 287 284 279 274 272 270 270
66 75 77 74 69 67 67 65 64 63 54 55 65 71 73 72 71 73 69 55 39 35 41 40 30 21 7 346 326 304 294 292 294 299 302 301 298 294 287 284 283 282
66 76 79 77 78 78 76 75 76 76 70 65 66 68 67 63 59 58 58 52 38 34 41 41 33 27 23 15 4 350 334 321 312 312 315 312 307 302 296 292 290 290